Вернуться в каталог

FENGYUN 1C DEB

АктивенSSO
NORAD 30937·DEBRIS·🇨🇳 China

Запущен May 10, 1999 с Taiyuan Satellite Launch Center

Loading…

Ближайшие Пролёты (ближайшие 24 часа)

TLE

СвежийSource: Space-Track

Эпоха: Sep 14, 2026, 10:36 UTC

1 30937U 99025BAB 26257.44175147  .00000210  00000-0  18183-3 0  9999
2 30937  99.0506 310.3882 0075323  18.8806 353.9507 13.95651819995620

Отслеживайте FENGYUN 1C DEB в реальном времени с AllMySat

Download on the App Store